KM4RT-13 Weather Reports


time (UTC)temp
F
wind
direction
speed
knots
gust
knots
rain 1hr
in
rain 24hr
in
rain mn
in
humidity
%
barometer
mb
20260504234800 77 234 10.4 15.6 0.00 0.00 0.00 42 1007.0
20260504234258 77 275 6.1 7.8 0.00 0.00 0.00 42 1007.0
20260504233753 77 230 5.2 6.1 0.00 0.00 0.00 41 1007.0
20260504233249 77 218 4.3 7.0 0.00 0.00 0.00 41 1007.1
20260504232746 78 199 7.8 11.3 0.00 0.00 0.00 40 1007.0
20260504232243 78 216 10.4 13.0 0.00 0.00 0.00 40 1007.1
20260504231740 78 234 12.2 14.8 0.00 0.00 0.00 40 1007.0
20260504231237 78 232 6.1 7.8 0.00 0.00 0.00 42 1007.4
20260504230732 78 215 7.0 8.7 0.00 0.00 0.00 42 1007.0
20260504230231 78 232 9.6 9.6 0.00 0.00 0.00 41 1006.9
20260504225730 78 210 6.1 7.8 0.00 0.00 0.00 41 1007.1
20260504225226 78 270 11.3 13.9 0.00 0.00 0.00 41 1007.1
20260504224723 78 252 14.8 20.0 0.00 0.00 0.00 41 1007.0
20260504224220 79 237 7.0 7.8 0.00 0.00 0.00 41 1007.0
20260504223716 78 226 4.3 7.0 0.00 0.00 0.00 41 1007.0
20260504223212 79 215 8.7 12.2 0.00 0.00 0.00 40 1007.1
20260504222709 79 238 7.8 9.6 0.00 0.00 0.00 40 1007.0
20260504222206 79 235 7.0 7.8 0.00 0.00 0.00 41 1007.1
20260504221703 79 215 9.6 9.6 0.00 0.00 0.00 41 1007.0
20260504221201 79 188 9.6 12.2 0.00 0.00 0.00 41 1006.9
20260504220656 79 233 4.3 5.2 0.00 0.00 0.00 41 1007.1
20260504220155 79 223 10.4 12.2 0.00 0.00 0.00 40 1007.1
20260504215651 79 206 9.6 11.3 0.00 0.00 0.00 42 1006.9
20260504215148 79 200 6.1 7.8 0.00 0.00 0.00 41 1006.9
20260504214644 80 215 14.8 20.0 0.00 0.00 0.00 40 1007.0
20260504214140 79 200 7.0 7.8 0.00 0.00 0.00 42 1007.0
20260504213637 79 200 13.0 15.6 0.00 0.00 0.00 41 1006.9
20260504213134 79 234 9.6 12.2 0.00 0.00 0.00 42 1006.8
20260504212630 79 200 14.8 16.5 0.00 0.00 0.00 41 1007.2
20260504212127 79 194 9.6 11.3 0.00 0.00 0.00 40 1007.1
20260504211625 79 192 16.5 19.1 0.00 0.00 0.00 40 1007.0
20260504211121 79 218 12.2 13.9 0.00 0.00 0.00 42 1007.4
20260504210619 79 222 11.3 13.0 0.00 0.00 0.00 41 1007.1
20260504210115 79 218 14.8 16.5 0.00 0.00 0.00 41 1007.2
20260504205613 79 221 11.3 13.9 0.00 0.00 0.00 42 1007.3
20260504205110 79 248 13.0 15.6 0.00 0.00 0.00 42 1007.3
20260504204609 79 225 13.0 14.8 0.00 0.00 0.00 42 1007.1
20260504204107 79 237 11.3 13.9 0.00 0.00 0.00 42 1007.4
20260504203605 78 230 8.7 13.0 0.00 0.00 0.00 43 1007.7
20260504203102 79 239 8.7 11.3 0.00 0.00 0.00 44 1007.6
20260504202557 79 244 13.9 16.5 0.00 0.00 0.00 41 1007.7
20260504202054 79 249 7.8 11.3 0.00 0.00 0.00 41 1007.9
20260504201551 79 221 5.2 7.0 0.00 0.00 0.00 41 1007.7
20260504201049 79 216 9.6 12.2 0.00 0.00 0.00 41 1008.2
20260504200545 79 203 8.7 11.3 0.00 0.00 0.00 42 1008.0
20260504200042 79 225 15.6 18.2 0.00 0.00 0.00 41 1007.9
20260504195538 79 202 9.6 11.3 0.00 0.00 0.00 42 1008.3
20260504195035 78 213 13.0 16.5 0.00 0.00 0.00 41 1008.4
20260504194531 78 226 20.0 25.2 0.00 0.00 0.00 41 1008.4
20260504194027 79 215 10.4 13.0 0.00 0.00 0.00 41 1008.4
20260504193524 79 218 10.4 12.2 0.00 0.00 0.00 43 1008.6
20260504193023 80 203 11.3 12.2 0.00 0.00 0.00 42 1008.5
20260504192520 79 212 7.0 9.6 0.00 0.00 0.00 41 1008.7
20260504192018 79 255 7.0 7.8 0.00 0.00 0.00 43 1008.7
20260504191516 78 233 12.2 13.9 0.00 0.00 0.00 44 1008.6
20260504191012 78 214 11.3 13.0 0.00 0.00 0.00 43 1008.6
20260504190508 78 173 12.2 16.5 0.00 0.00 0.00 43 1008.8
20260504190004 78 239 13.0 16.5 0.00 0.00 0.00 43 1008.8
20260504185501 78 184 9.6 11.3 0.00 0.00 0.00 44 1009.0
20260504184958 79 196 13.0 16.5 0.00 0.00 0.00 42 1008.9
20260504184453 78 241 6.1 9.6 0.00 0.00 0.00 45 1009.2
20260504183949 78 210 14.8 15.6 0.00 0.00 0.00 43 1009.0
20260504183446 78 204 11.3 13.9 0.00 0.00 0.00 43 1009.2
20260504182944 78 247 13.9 16.5 0.00 0.00 0.00 43 1009.2
20260504182441 77 206 13.0 15.6 0.00 0.00 0.00 45 1009.5
20260504181938 77 224 12.2 16.5 0.00 0.00 0.00 46 1009.4
20260504181435 77 220 6.1 8.7 0.00 0.00 0.00 47 1009.4
20260504180934 77 196 9.6 11.3 0.00 0.00 0.00 46 1009.4
20260504180432 77 228 7.8 8.7 0.00 0.00 0.00 47 1009.5
20260504175930 77 208 14.8 16.5 0.00 0.00 0.00 46 1009.8
20260504175427 77 187 7.8 8.7 0.00 0.00 0.00 46 1009.7
20260504174925 77 224 11.3 13.9 0.00 0.00 0.00 45 1009.9
20260504174422 77 199 10.4 12.2 0.00 0.00 0.00 47 1009.9
20260504173919 77 262 3.5 6.1 0.00 0.00 0.00 49 1009.8
20260504173416 76 279 5.2 7.8 0.00 0.00 0.00 47 1009.8
20260504172913 76 277 11.3 14.8 0.00 0.00 0.00 48 1010.0
20260504172409 76 209 7.8 11.3 0.00 0.00 0.00 48 1010.1
20260504171905 76 241 5.2 7.8 0.00 0.00 0.00 52 1010.1
20260504171403 77 320 7.8 12.2 0.00 0.00 0.00 48 1010.3
20260504170900 75 277 7.8 8.7 0.00 0.00 0.00 51 1010.5
20260504170356 75 230 10.4 14.8 0.00 0.00 0.00 51 1010.4
20260504160315 74 237 5.2 6.1 0.00 0.00 0.00 54 1011.0
20260504150739 72 202 4.3 5.2 0.00 0.00 0.00 61 1011.4
20260504150236 72 175 6.1 8.7 0.00 0.00 0.00 61 1011.3
20260504141206 68 204 6.1 7.8 0.00 0.00 0.00 68 1011.5
20260504140703 68 225 7.0 7.8 0.00 0.00 0.00 68 1011.7
20260504140158 68 253 6.1 7.8 0.00 0.00 0.00 69 1011.6
20260504130626 63 197 1.7 2.6 0.00 0.00 0.00 77 1011.5
20260504130123 62 200 2.6 2.6 0.00 0.00 0.00 77 1011.2
20260504110514 59 202 2.6 2.6 0.00 0.00 0.00 78 1010.6
20260504100431 59 217 3.5 5.2 0.00 0.00 0.00 76 1010.7
20260504081824 59 203 3.5 3.5 0.00 0.00 0.00 72 1011.1
20260504081321 59 205 3.5 3.5 0.00 0.00 0.00 71 1011.1
20260504080816 60 209 4.3 5.2 0.00 0.00 0.00 71 1011.0
20260504080314 59 210 4.3 5.2 0.00 0.00 0.00 71 1011.0
20260504070241 60 199 5.2 6.1 0.00 0.00 0.00 68 1011.5
20260504060202 60 235 4.3 5.2 0.00 0.00 0.00 67 1012.2
20260504050630 60 208 2.6 3.5 0.00 0.00 0.00 67 1012.4
20260504050127 59 192 0.9 1.7 0.00 0.00 0.00 68 1012.6
20260504045623 59 210 0.9 1.7 0.00 0.00 0.00 68 1012.4
20260504045118 59 227 0.9 0.9 0.00 0.00 0.00 68 1012.5
20260504044617 60 218 2.6 2.6 0.00 0.00 0.00 66 1012.4
20260504044113 59 245 2.6 2.6 0.00 0.00 0.00 67 1012.5
20260504043610 59 211 1.7 1.7 0.00 0.00 0.00 67 1012.5
20260504043108 60 226 1.7 1.7 0.00 0.00 0.00 67 1012.4
20260504042605 60 176 0.9 0.9 0.00 0.00 0.00 67 1012.6
20260504042101 60 203 1.7 1.7 0.00 0.00 0.00 65 1012.6
20260504041557 60 214 2.6 2.6 0.00 0.00 0.00 65 1012.5
20260504041054 60 196 2.6 2.6 0.00 0.00 0.00 64 1012.3
20260504040551 60 233 1.7 2.6 0.00 0.00 0.00 64 1012.5
20260504040047 60 207 0.9 0.9 0.00 0.00 0.00 65 1012.6
20260504035544 60 212 1.7 1.7 0.00 0.00 0.00 64 1012.5
20260504035040 60 222 1.7 1.7 0.00 0.00 0.00 64 1012.5
20260504034539 60 209 1.7 1.7 0.00 0.00 0.00 65 1012.6
20260504034035 60 210 1.7 1.7 0.00 0.00 0.00 64 1012.7
20260504033533 60 212 1.7 1.7 0.00 0.00 0.00 64 1012.9
20260504033030 60 201 0.9 0.9 0.00 0.00 0.00 64 1012.9
20260504032527 60 206 1.7 1.7 0.00 0.00 0.00 63 1012.8
20260504032024 60 190 0.9 1.7 0.00 0.00 0.00 64 1012.9
20260504031521 60 191 1.7 1.7 0.00 0.00 0.00 63 1012.9
20260504031017 61 206 1.7 1.7 0.00 0.00 0.00 62 1013.1
20260504030515 61 210 1.7 1.7 0.00 0.00 0.00 61 1012.9
20260504030011 61 200 1.7 1.7 0.00 0.00 0.00 61 1013.1
20260504025508 61 187 0.9 0.9 0.00 0.00 0.00 60 1013.0
20260504025005 61 187 0.9 0.9 0.00 0.00 0.00 60 1013.1
20260504024502 62 205 0.9 1.7 0.00 0.00 0.00 60 1012.9
20260504023959 62 200 1.7 1.7 0.00 0.00 0.00 58 1013.0
20260504023455 62 200 1.7 1.7 0.00 0.00 0.00 58 1013.1
20260504022951 62 199 0.9 0.9 0.00 0.00 0.00 57 1013.1
20260504022447 62 199 0.0 0.0 0.00 0.00 0.00 56 1012.8
20260504021944 62 199 0.0 0.0 0.00 0.00 0.00 56 1012.8
20260504021441 62 200 0.0 0.0 0.00 0.00 0.00 56 1012.8
20260504020938 63 199 0.0 0.0 0.00 0.00 0.00 56 1012.7
20260504020435 62 199 0.0 0.0 0.00 0.00 0.00 56 1012.7
20260504015932 62 199 0.0 0.0 0.00 0.00 0.00 59 1012.7
20260504015427 62 199 0.0 0.0 0.00 0.00 0.00 57 1012.8
20260504014923 64 199 0.0 0.0 0.00 0.00 0.00 53 1012.5
20260504014420 64 199 0.0 0.0 0.00 0.00 0.00 51 1012.6
20260504013917 64 199 0.0 0.0 0.00 0.00 0.00 52 1012.6
20260504013415 64 199 0.0 0.0 0.00 0.00 0.00 51 1012.7
20260504012911 64 178 0.0 0.0 0.00 0.00 0.00 52 1012.7
20260504012409 64 178 0.0 0.0 0.00 0.00 0.00 52 1012.5
20260504011906 64 178 0.0 0.0 0.00 0.00 0.00 53 1012.6
20260504011403 64 178 0.0 0.0 0.00 0.00 0.00 53 1012.5
20260504010859 65 178 0.0 0.0 0.00 0.00 0.00 51 1012.9
20260504010354 66 178 0.0 0.0 0.00 0.00 0.00 50 1012.7
20260504005845 66 178 0.0 0.9 0.00 0.00 0.00 48 1012.5
20260504005342 67 178 0.9 0.9 0.00 0.00 0.00 47 1012.6
20260504004840 67 177 0.0 0.9 0.00 0.00 0.00 47 1012.6
20260504004337 68 177 0.9 0.9 0.00 0.00 0.00 46 1012.6
20260504003834 68 224 0.9 0.9 0.00 0.00 0.00 46 1012.8
20260504003331 69 206 0.9 0.9 0.00 0.00 0.00 45 1012.6
20260504002827 69 227 0.9 0.9 0.00 0.00 0.00 43 1012.6
20260504002324 70 204 1.7 1.7 0.00 0.00 0.00 43 1012.6
20260504001822 70 234 1.7 2.6 0.00 0.00 0.00 42 1012.6
20260504001319 70 201 3.5 5.2 0.00 0.00 0.00 41 1012.6
20260504000815 71 194 2.6 2.6 0.00 0.00 0.00 40 1012.7
20260504000313 71 232 3.5 3.5 0.00 0.00 0.00 41 1012.9
20260503235810 71 194 2.6 2.6 0.00 0.00 0.00 40 1012.8
20260503235308 71 218 3.5 3.5 0.00 0.00 0.00 39 1012.7